This is the latest recevied weather packets stored in our database for station/object KC0AFB. If no packets are shown the sender has not sent any weather packets the latest 10 day(s).
| Time | Temp. | Humidity | Pressure | Rain* | Wind** | Luminosity | Snow |
|---|---|---|---|---|---|---|---|
| 1777913431 | 7.78° C | 50% | 1008.1 hPa | 0 mm | - | 791 W/m² | - |
| 1777913127 | 7.78° C | 51% | 1008 hPa | 0 mm | - | 826 W/m² | - |
| 1777912824 | 7.22° C | 53% | 1008 hPa | 0 mm | - | 271 W/m² | - |
| 1777912520 | 7.22° C | 53% | 1007.9 hPa | 0 mm | - | 309 W/m² | - |
| 1777912216 | 7.78° C | 55% | 1008 hPa | 0 mm | - | 289 W/m² | - |
| 1777911913 | 7.78° C | 55% | 1008 hPa | 0 mm | - | 860 W/m² | - |
| 1777911609 | 6.67° C | 55% | 1008.1 hPa | 0 mm | - | 806 W/m² | - |
| 1777911304 | 6.67° C | 54% | 1008 hPa | 0 mm | - | 331 W/m² | - |
| 1777911003 | 6.11° C | 55% | 1008.1 hPa | 0 mm | - | 335 W/m² | - |
| 1777910701 | 6.67° C | 54% | 1008.1 hPa | 0 mm | - | 558 W/m² | - |
| 1777910396 | 6.67° C | 54% | 1008.2 hPa | 0 mm | - | 323 W/m² | - |
| 1777910093 | 6.11° C | 55% | 1008.2 hPa | 0 mm | - | 220 W/m² | - |
| 1777909790 | 6.11° C | 55% | 1008 hPa | 0 mm | - | 307 W/m² | - |
| 1777909486 | 6.67° C | 54% | 1008.1 hPa | 0 mm | - | 232 W/m² | - |
| 1777909179 | 6.11° C | 53% | 1008 hPa | 0 mm | - | 213 W/m² | - |
| 1777908877 | 6.11° C | 53% | 1008.2 hPa | 0 mm | - | 309 W/m² | - |
| 1777908574 | 7.22° C | 53% | 1008.3 hPa | 0 mm | - | 286 W/m² | - |
| 1777908271 | 5.56° C | 55% | 1008 hPa | 0 mm | - | 170 W/m² | - |
| 1777907967 | 5.56° C | 54% | 1008.1 hPa | 0 mm | - | 147 W/m² | - |
| 1777907662 | 5° C | 58% | 1008 hPa | 0 mm | - | 154 W/m² | - |
| 1777907358 | 5° C | 59% | 1008.2 hPa | 0 mm | - | 201 W/m² | - |
| 1777907055 | 5° C | 59% | 1008.4 hPa | 0 mm | - | 168 W/m² | - |
| 1777906753 | 5° C | 60% | 1008 hPa | 0 mm | - | 219 W/m² | - |
| 1777906449 | 5.56° C | 60% | 1008.2 hPa | 0 mm | - | 345 W/m² | - |
| 1777906146 | 5° C | 61% | 1008.2 hPa | 0 mm | - | 234 W/m² | - |
* Rain latest hour (hover to see other rain measurements)
** Current wind speed in m/s (hover to see current wind gust speed)